Location: Cabeza de los Veneras
(40.2000°N, 5.2000°W)
Time: 11:22:10
(UTC+00:00)

Terra - Pass Details

Date: 18 April 2024
Orbit: 691 x 696 km, 98.0° (Epoch: 22 May)

Event Time Altitude Azimuth Distance (km) Brightness Sun altitude
Exits shadow 20:40:19 21° 75° (ENE) 1,548 3.2 -17.8°
Maximum altitude 20:40:49 21° 66° (ENE) 1,534 3.3 -17.8°
Drops below altitude 10° 20:44:21 10° 18° (NNE) 2,163 4.5 -18.4°
Sets 20:47:03 0° 3° (N) 3,084 5.6 -18.8°
